Location: Unspecified
(0.0000°N, 0.0000°E)
Time: 16:57:44
(UTC+00:00)

COSMOS 2251 DEB - Pass Details

Date: 22 February 2026
Orbit: 744 x 1394 km, 73.9° (Epoch: 2 March)

Event Time Altitude Azimuth Distance (km) Brightness Sun altitude
Exits shadow 04:20:26 15° 216° (SW) 3,070 ? -27.8°
Drops below altitude 10° 04:22:06 10° 207° (SSW) 3,457 ? -27.4°
Sets 04:25:46 0° 193° (SSW) 4,453 ? -26.5°
